TimeEST,TemperatureF,Dew PointF,Humidity,Sea Level PressureIn,VisibilityMPH,Wind Direction,Wind SpeedMPH,Gust SpeedMPH,PrecipitationIn,Events,Conditions,WindDirDegrees,DateUTC
12:53 AM,18.0,10.9,74,30.08,10.0,WSW,8.1,-,N/A,,Overcast,240,2013-02-04 05:53:00
1:53 AM,18.0,10.9,74,30.08,10.0,SW,6.9,-,N/A,,Overcast,230,2013-02-04 06:53:00
2:53 AM,17.1,10.9,77,30.08,10.0,SW,5.8,-,N/A,,Overcast,230,2013-02-04 07:53:00
3:53 AM,17.1,12.0,81,30.07,6.0,SW,5.8,-,N/A,,Haze,220,2013-02-04 08:53:00
5:53 AM,18.0,14.0,84,30.04,6.0,South,4.6,-,0.00,,Overcast,190,2013-02-04 10:53:00
6:11 AM,17.6,15.8,93,29.99,2.0,South,3.5,-,0.00,Snow,Light Snow,190,2013-02-04 11:11:00
6:20 AM,19.4,15.8,86,29.99,1.8,SSW,4.6,-,0.00,Snow,Light Snow,200,2013-02-04 11:20:00
6:29 AM,19.4,15.8,86,29.99,2.0,South,4.6,-,0.00,Snow,Light Snow,190,2013-02-04 11:29:00
6:53 AM,19.0,15.1,85,30.01,2.5,South,4.6,-,0.00,Snow,Light Snow,180,2013-02-04 11:53:00
7:03 AM,19.4,15.8,86,29.98,3.0,South,4.6,-,0.00,Snow,Light Snow,190,2013-02-04 12:03:00
7:18 AM,19.4,15.8,86,29.98,2.5,South,4.6,-,0.00,Snow,Light Snow,190,2013-02-04 12:18:00
7:24 AM,19.4,15.8,86,29.98,2.0,South,3.5,-,0.00,Snow,Light Snow,190,2013-02-04 12:24:00
7:53 AM,19.0,15.1,85,30.01,1.2,Calm,Calm,-,0.01,Snow,Light Snow,0,2013-02-04 12:53:00
8:20 AM,19.4,15.8,86,29.98,0.8,South,3.5,-,0.00,Snow,Light Snow,180,2013-02-04 13:20:00
8:53 AM,19.9,17.1,89,30.02,0.5,South,3.5,-,0.01,Fog-Snow,Light Snow,190,2013-02-04 13:53:00
9:04 AM,19.4,15.8,86,29.99,0.5,South,3.5,-,0.01,Fog-Snow,Snow,180,2013-02-04 14:04:00
9:53 AM,19.9,17.1,89,30.02,0.5,South,3.5,-,0.03,Fog-Snow,Light Snow,170,2013-02-04 14:53:00
10:53 AM,21.9,18.0,85,29.99,0.8,ESE,3.5,-,0.03,Snow,Light Snow,120,2013-02-04 15:53:00
10:59 AM,21.2,17.6,86,29.94,1.0,East,6.9,-,0.00,Snow,Light Snow,100,2013-02-04 15:59:00
11:27 AM,23.0,19.4,86,29.94,0.8,ESE,4.6,-,0.00,Snow,Light Snow,110,2013-02-04 16:27:00
11:40 AM,23.0,19.4,86,29.94,1.0,East,4.6,-,0.00,Snow,Light Snow,90,2013-02-04 16:40:00
11:53 AM,23.0,19.9,88,29.96,0.8,East,5.8,-,0.00,Snow,Light Snow,100,2013-02-04 16:53:00
12:03 PM,23.0,19.4,86,29.92,1.0,East,5.8,-,0.01,Snow,Light Snow,100,2013-02-04 17:03:00
12:08 PM,24.8,19.4,80,29.92,0.8,ESE,4.6,-,0.01,Snow,Light Snow,120,2013-02-04 17:08:00
12:17 PM,24.8,19.4,80,29.92,1.2,ESE,5.8,-,0.01,Snow,Light Snow,120,2013-02-04 17:17:00
12:49 PM,24.8,19.4,80,29.90,1.8,ESE,4.6,-,0.01,Snow,Light Snow,120,2013-02-04 17:49:00
12:51 PM,24.8,19.4,80,29.90,2.5,SE,3.5,-,0.01,Snow,Light Snow,130,2013-02-04 17:51:00
12:53 PM,24.1,19.9,84,29.93,3.0,SE,4.6,-,0.01,Snow,Light Snow,130,2013-02-04 17:53:00
1:53 PM,24.1,19.9,84,29.90,3.0,East,5.8,-,0.00,Snow,Light Snow,100,2013-02-04 18:53:00
2:01 PM,24.8,19.4,80,29.86,4.0,ESE,4.6,-,0.00,Snow,Light Snow,120,2013-02-04 19:01:00
2:53 PM,25.0,19.0,78,29.90,5.0,ESE,3.5,-,0.01,,Haze,110,2013-02-04 19:53:00
3:21 PM,24.8,19.4,80,29.86,4.0,ESE,5.8,-,0.00,Snow,Light Snow,120,2013-02-04 20:21:00
3:53 PM,24.1,19.9,84,29.89,3.0,East,4.6,-,0.01,Snow,Light Snow,90,2013-02-04 20:53:00
4:25 PM,24.8,19.4,80,29.86,7.0,East,5.8,-,0.00,,Overcast,90,2013-02-04 21:25:00
4:53 PM,24.1,19.9,84,29.90,6.0,East,4.6,-,0.00,,Overcast,80,2013-02-04 21:53:00
5:36 PM,24.8,21.2,86,29.85,6.0,Calm,Calm,-,N/A,,Overcast,0,2013-02-04 22:36:00
5:53 PM,24.1,21.0,88,29.89,7.0,ENE,4.6,-,N/A,,Overcast,70,2013-02-04 22:53:00
6:35 PM,24.8,21.2,86,29.85,8.0,ENE,4.6,-,N/A,,Overcast,70,2013-02-04 23:35:00
6:53 PM,24.1,21.0,88,29.88,8.0,ENE,4.6,-,N/A,,Overcast,70,2013-02-04 23:53:00
7:53 PM,24.1,19.9,84,29.91,9.0,NNE,3.5,-,N/A,,Overcast,20,2013-02-05 00:53:00
8:10 PM,24.8,19.4,80,29.89,7.0,North,4.6,-,N/A,,Overcast,360,2013-02-05 01:10:00
8:23 PM,24.8,19.4,80,29.90,7.0,North,4.6,-,N/A,,Overcast,360,2013-02-05 01:23:00
8:36 PM,24.8,19.4,80,29.90,7.0,North,3.5,-,N/A,,Overcast,10,2013-02-05 01:36:00
8:53 PM,24.1,19.9,84,29.93,7.0,North,3.5,-,N/A,,Overcast,350,2013-02-05 01:53:00
9:53 PM,23.0,19.0,85,29.94,6.0,North,5.8,-,N/A,,Overcast,360,2013-02-05 02:53:00
10:53 PM,21.9,19.0,89,29.93,7.0,North,3.5,-,N/A,,Overcast,10,2013-02-05 03:53:00
11:53 PM,21.9,18.0,85,29.96,7.0,North,6.9,-,N/A,,Overcast,350,2013-02-05 04:53:00